Data supplied by UK-AIR on 27/11/2015
All Data GMT hour ending 
Status: R =Ratified P=Provisional,P*=As supplied
,,Wicken Fen,,,,,,,,,,,,,,,,,,,,,,,
Date,time,"Nitric oxide",status,unit,"Nitrogen dioxide",status,unit,"Nitrogen oxides as nitrogen dioxide",status,unit,"Ozone",status,unit,"Sulphur dioxide",status,unit
 
01-01-2012,01:00,1.60000,R,ugm-3,3.60000,R,ugm-3,6.10000,R,ugm-3,38.00000,R,ugm-3,0.00000,R,ugm-3
01-01-2012,02:00,2.10000,R,ugm-3,3.10000,R,ugm-3,6.30000,R,ugm-3,40.00000,R,ugm-3,0.00000,R,ugm-3
01-01-2012,03:00,1.60000,R,ugm-3,1.90000,R,ugm-3,4.40000,R,ugm-3,40.00000,R,ugm-3,0.00000,R,ugm-3
01-01-2012,04:00,1.60000,R,ugm-3,2.30000,R,ugm-3,4.80000,R,ugm-3,40.00000,R,ugm-3,0.00000,R,ugm-3
01-01-2012,05:00,1.90000,R,ugm-3,4.20000,R,ugm-3,7.10000,R,ugm-3,38.00000,R,ugm-3,0.00000,R,ugm-3
01-01-2012,06:00,1.90000,R,ugm-3,3.30000,R,ugm-3,6.10000,R,ugm-3,42.00000,R,ugm-3,0.00000,R,ugm-3
01-01-2012,07:00,2.20000,R,ugm-3,3.60000,R,ugm-3,7.10000,R,ugm-3,46.00000,R,ugm-3,0.00000,R,ugm-3
01-01-2012,08:00,1.00000,R,ugm-3,3.30000,R,ugm-3,4.80000,R,ugm-3,48.00000,R,ugm-3,0.00000,R,ugm-3
01-01-2012,09:00,3.10000,R,ugm-3,6.50000,R,ugm-3,11.30000,R,ugm-3,36.00000,R,ugm-3,0.50000,R,ugm-3
01-01-2012,10:00,2.20000,R,ugm-3,6.50000,R,ugm-3,9.90000,R,ugm-3,36.00000,R,ugm-3,0.50000,R,ugm-3
01-01-2012,11:00,1.60000,R,ugm-3,2.70000,R,ugm-3,5.20000,R,ugm-3,44.00000,R,ugm-3,0.00000,R,ugm-3
01-01-2012,12:00,1.90000,R,ugm-3,2.30000,R,ugm-3,5.20000,R,ugm-3,46.00000,R,ugm-3,0.00000,R,ugm-3
01-01-2012,13:00,2.50000,R,ugm-3,1.70000,R,ugm-3,5.50000,R,ugm-3,48.00000,R,ugm-3,0.00000,R,ugm-3
01-01-2012,14:00,1.90000,R,ugm-3,3.60000,R,ugm-3,6.50000,R,ugm-3,48.00000,R,ugm-3,0.00000,R,ugm-3
01-01-2012,15:00,2.20000,R,ugm-3,3.60000,R,ugm-3,7.10000,R,ugm-3,48.00000,R,ugm-3,0.80000,R,ugm-3
01-01-2012,16:00,1.90000,R,ugm-3,8.80000,R,ugm-3,11.70000,R,ugm-3,44.00000,R,ugm-3,0.50000,R,ugm-3
01-01-2012,17:00,1.90000,R,ugm-3,8.40000,R,ugm-3,11.30000,R,ugm-3,42.00000,R,ugm-3,1.60000,R,ugm-3
01-01-2012,18:00,2.20000,R,ugm-3,9.20000,R,ugm-3,12.60000,R,ugm-3,40.00000,R,ugm-3,1.30000,R,ugm-3
01-01-2012,19:00,1.60000,R,ugm-3,12.60000,R,ugm-3,15.10000,R,ugm-3,34.00000,R,ugm-3,0.50000,R,ugm-3
01-01-2012,20:00,2.50000,R,ugm-3,8.80000,R,ugm-3,12.60000,R,ugm-3,34.00000,R,ugm-3,0.80000,R,ugm-3
01-01-2012,21:00,2.90000,R,ugm-3,7.50000,R,ugm-3,11.90000,R,ugm-3,36.00000,R,ugm-3,1.60000,R,ugm-3
01-01-2012,22:00,2.50000,R,ugm-3,8.40000,R,ugm-3,12.20000,R,ugm-3,34.00000,R,ugm-3,1.30000,R,ugm-3
01-01-2012,23:00,2.50000,R,ugm-3,9.80000,R,ugm-3,13.60000,R,ugm-3,36.00000,R,ugm-3,2.10000,R,ugm-3
01-01-2012,24:00,3.70000,R,ugm-3,10.70000,R,ugm-3,16.40000,R,ugm-3,28.00000,R,ugm-3,0.80000,R,ugm-3
02-01-2012,01:00,2.90000,R,ugm-3,8.60000,R,ugm-3,13.00000,R,ugm-3,30.00000,R,ugm-3,3.50000,R,ugm-3
02-01-2012,02:00,2.90000,R,ugm-3,8.60000,R,ugm-3,13.00000,R,ugm-3,32.00000,R,ugm-3,6.40000,R,ugm-3
02-01-2012,03:00,2.50000,R,ugm-3,11.10000,R,ugm-3,14.90000,R,ugm-3,32.00000,R,ugm-3,5.90000,R,ugm-3
02-01-2012,04:00,2.90000,R,ugm-3,8.40000,R,ugm-3,12.80000,R,ugm-3,32.00000,R,ugm-3,1.60000,R,ugm-3
02-01-2012,05:00,1.60000,R,ugm-3,6.50000,R,ugm-3,9.00000,R,ugm-3,34.00000,R,ugm-3,2.70000,R,ugm-3
02-01-2012,06:00,1.90000,R,ugm-3,5.20000,R,ugm-3,8.00000,R,ugm-3,38.00000,R,ugm-3,3.50000,R,ugm-3
02-01-2012,07:00,1.60000,R,ugm-3,3.30000,R,ugm-3,5.70000,R,ugm-3,44.00000,R,ugm-3,3.50000,R,ugm-3
02-01-2012,08:00,1.60000,R,ugm-3,3.60000,R,ugm-3,6.10000,R,ugm-3,44.00000,R,ugm-3,3.50000,R,ugm-3
02-01-2012,09:00,1.20000,R,ugm-3,5.50000,R,ugm-3,7.50000,R,ugm-3,40.00000,R,ugm-3,3.50000,R,ugm-3
02-01-2012,10:00,1.60000,R,ugm-3,5.50000,R,ugm-3,8.00000,R,ugm-3,42.00000,R,ugm-3,3.50000,R,ugm-3
02-01-2012,11:00,2.20000,R,ugm-3,4.20000,R,ugm-3,7.70000,R,ugm-3,48.00000,R,ugm-3,3.50000,R,ugm-3
02-01-2012,12:00,2.20000,R,ugm-3,3.30000,R,ugm-3,6.70000,R,ugm-3,50.00000,R,ugm-3,3.50000,R,ugm-3
02-01-2012,13:00,2.50000,R,ugm-3,4.20000,R,ugm-3,8.00000,R,ugm-3,48.00000,R,ugm-3,3.50000,R,ugm-3
02-01-2012,14:00,2.20000,R,ugm-3,3.60000,R,ugm-3,7.10000,R,ugm-3,50.00000,R,ugm-3,3.50000,R,ugm-3
02-01-2012,15:00,1.90000,R,ugm-3,4.20000,R,ugm-3,7.10000,R,ugm-3,50.00000,R,ugm-3,3.50000,R,ugm-3
02-01-2012,16:00,1.90000,R,ugm-3,4.20000,R,ugm-3,7.10000,R,ugm-3,48.00000,R,ugm-3,2.90000,R,ugm-3
02-01-2012,17:00,2.20000,R,ugm-3,4.20000,R,ugm-3,7.70000,R,ugm-3,48.00000,R,ugm-3,2.90000,R,ugm-3
02-01-2012,18:00,1.90000,R,ugm-3,7.50000,R,ugm-3,10.30000,R,ugm-3,46.00000,R,ugm-3,2.70000,R,ugm-3
02-01-2012,19:00,1.60000,R,ugm-3,10.10000,R,ugm-3,12.60000,R,ugm-3,44.00000,R,ugm-3,4.80000,R,ugm-3
02-01-2012,20:00,2.50000,R,ugm-3,10.70000,R,ugm-3,14.50000,R,ugm-3,40.00000,R,ugm-3,6.90000,R,ugm-3
02-01-2012,21:00,1.90000,R,ugm-3,11.10000,R,ugm-3,14.00000,R,ugm-3,40.00000,R,ugm-3,4.80000,R,ugm-3
02-01-2012,22:00,2.50000,R,ugm-3,10.70000,R,ugm-3,14.50000,R,ugm-3,42.00000,R,ugm-3,4.80000,R,ugm-3
02-01-2012,23:00,1.90000,R,ugm-3,8.40000,R,ugm-3,11.30000,R,ugm-3,44.00000,R,ugm-3,5.60000,R,ugm-3
02-01-2012,24:00,1.60000,R,ugm-3,8.00000,R,ugm-3,10.50000,R,ugm-3,46.00000,R,ugm-3,4.00000,R,ugm-3
03-01-2012,01:00,1.60000,R,ugm-3,11.10000,R,ugm-3,13.60000,R,ugm-3,44.00000,R,ugm-3,3.50000,R,ugm-3
03-01-2012,02:00,1.20000,R,ugm-3,8.60000,R,ugm-3,10.50000,R,ugm-3,46.00000,R,ugm-3,1.60000,R,ugm-3
03-01-2012,03:00,2.20000,R,ugm-3,6.50000,R,ugm-3,9.90000,R,ugm-3,54.00000,R,ugm-3,2.10000,R,ugm-3
03-01-2012,04:00,1.90000,R,ugm-3,3.60000,R,ugm-3,6.50000,R,ugm-3,58.00000,R,ugm-3,3.50000,R,ugm-3
03-01-2012,05:00,1.20000,R,ugm-3,3.30000,R,ugm-3,5.20000,R,ugm-3,60.00000,R,ugm-3,4.80000,R,ugm-3
03-01-2012,06:00,1.60000,R,ugm-3,2.30000,R,ugm-3,4.80000,R,ugm-3,60.00000,R,ugm-3,5.10000,R,ugm-3
03-01-2012,07:00,1.20000,R,ugm-3,2.90000,R,ugm-3,4.80000,R,ugm-3,56.00000,R,ugm-3,6.90000,R,ugm-3
03-01-2012,08:00,1.90000,R,ugm-3,3.30000,R,ugm-3,6.10000,R,ugm-3,56.00000,R,ugm-3,6.10000,R,ugm-3
03-01-2012,09:00,1.90000,R,ugm-3,7.10000,R,ugm-3,9.90000,R,ugm-3,54.00000,R,ugm-3,9.00000,R,ugm-3
03-01-2012,10:00,1.90000,R,ugm-3,5.50000,R,ugm-3,8.40000,R,ugm-3,56.00000,R,ugm-3,5.60000,R,ugm-3
03-01-2012,11:00,1.90000,R,ugm-3,5.50000,R,ugm-3,8.40000,R,ugm-3,54.00000,R,ugm-3,5.60000,R,ugm-3
03-01-2012,12:00,1.90000,R,ugm-3,5.20000,R,ugm-3,8.00000,R,ugm-3,58.00000,R,ugm-3,6.90000,R,ugm-3
03-01-2012,13:00,2.90000,R,ugm-3,8.20000,R,ugm-3,12.60000,R,ugm-3,50.00000,R,ugm-3,6.10000,R,ugm-3
03-01-2012,14:00,2.20000,R,ugm-3,11.70000,R,ugm-3,15.10000,R,ugm-3,50.00000,R,ugm-3,7.50000,R,ugm-3
03-01-2012,15:00,2.90000,R,ugm-3,11.10000,R,ugm-3,15.50000,R,ugm-3,46.00000,R,ugm-3,6.40000,R,ugm-3
03-01-2012,16:00,2.20000,R,ugm-3,6.90000,R,ugm-3,10.30000,R,ugm-3,50.00000,R,ugm-3,3.50000,R,ugm-3
03-01-2012,17:00,2.90000,R,ugm-3,7.50000,R,ugm-3,11.90000,R,ugm-3,46.00000,R,ugm-3,5.60000,R,ugm-3
03-01-2012,18:00,1.90000,R,ugm-3,6.10000,R,ugm-3,9.00000,R,ugm-3,48.00000,R,ugm-3,4.00000,R,ugm-3
03-01-2012,19:00,1.60000,R,ugm-3,6.10000,R,ugm-3,8.60000,R,ugm-3,50.00000,R,ugm-3,2.70000,R,ugm-3
03-01-2012,20:00,1.90000,R,ugm-3,7.50000,R,ugm-3,10.30000,R,ugm-3,48.00000,R,ugm-3,2.90000,R,ugm-3
03-01-2012,21:00,2.20000,R,ugm-3,8.80000,R,ugm-3,12.20000,R,ugm-3,44.00000,R,ugm-3,3.50000,R,ugm-3
03-01-2012,22:00,1.20000,R,ugm-3,8.80000,R,ugm-3,10.70000,R,ugm-3,48.00000,R,ugm-3,6.10000,R,ugm-3
03-01-2012,23:00,1.90000,R,ugm-3,9.40000,R,ugm-3,12.20000,R,ugm-3,50.00000,R,ugm-3,4.80000,R,ugm-3
03-01-2012,24:00,1.90000,R,ugm-3,7.10000,R,ugm-3,9.90000,R,ugm-3,52.00000,R,ugm-3,4.80000,R,ugm-3
04-01-2012,01:00,2.10000,R,ugm-3,4.20000,R,ugm-3,7.50000,R,ugm-3,54.00000,R,ugm-3,4.00000,R,ugm-3
04-01-2012,02:00,2.10000,R,ugm-3,3.10000,R,ugm-3,6.30000,R,ugm-3,54.00000,R,ugm-3,4.00000,R,ugm-3
04-01-2012,03:00,1.20000,R,ugm-3,4.20000,R,ugm-3,6.10000,R,ugm-3,52.00000,R,ugm-3,5.10000,R,ugm-3
04-01-2012,04:00,1.60000,R,ugm-3,5.50000,R,ugm-3,8.00000,R,ugm-3,50.00000,R,ugm-3,4.00000,R,ugm-3
04-01-2012,05:00,1.60000,R,ugm-3,6.10000,R,ugm-3,8.60000,R,ugm-3,46.00000,R,ugm-3,3.50000,R,ugm-3
04-01-2012,06:00,1.60000,R,ugm-3,4.60000,R,ugm-3,7.10000,R,ugm-3,48.00000,R,ugm-3,3.50000,R,ugm-3
04-01-2012,07:00,1.60000,R,ugm-3,7.50000,R,ugm-3,9.90000,R,ugm-3,44.00000,R,ugm-3,4.00000,R,ugm-3
04-01-2012,08:00,1.90000,R,ugm-3,8.80000,R,ugm-3,11.70000,R,ugm-3,44.00000,R,ugm-3,6.10000,R,ugm-3
04-01-2012,09:00,2.20000,R,ugm-3,12.00000,R,ugm-3,15.50000,R,ugm-3,40.00000,R,ugm-3,4.00000,R,ugm-3
04-01-2012,10:00,2.50000,R,ugm-3,12.00000,R,ugm-3,15.90000,R,ugm-3,38.00000,R,ugm-3,1.10000,R,ugm-3
04-01-2012,11:00,2.20000,R,ugm-3,12.60000,R,ugm-3,16.10000,R,ugm-3,36.00000,R,ugm-3,2.90000,R,ugm-3
04-01-2012,12:00,1.90000,R,ugm-3,12.00000,R,ugm-3,14.90000,R,ugm-3,38.00000,R,ugm-3,3.50000,R,ugm-3
04-01-2012,13:00,2.20000,R,ugm-3,8.80000,R,ugm-3,12.20000,R,ugm-3,42.00000,R,ugm-3,3.50000,R,ugm-3
04-01-2012,14:00,1.90000,R,ugm-3,11.10000,R,ugm-3,14.00000,R,ugm-3,44.00000,R,ugm-3,5.60000,R,ugm-3
04-01-2012,15:00,1.90000,R,ugm-3,11.10000,R,ugm-3,14.00000,R,ugm-3,44.00000,R,ugm-3,4.80000,R,ugm-3
04-01-2012,16:00,1.90000,R,ugm-3,13.00000,R,ugm-3,15.90000,R,ugm-3,48.00000,R,ugm-3,2.70000,R,ugm-3
04-01-2012,17:00,1.60000,R,ugm-3,15.50000,R,ugm-3,18.00000,R,ugm-3,46.00000,R,ugm-3,5.10000,R,ugm-3
04-01-2012,18:00,1.90000,R,ugm-3,14.50000,R,ugm-3,17.40000,R,ugm-3,44.00000,R,ugm-3,5.10000,R,ugm-3
04-01-2012,19:00,2.50000,R,ugm-3,10.10000,R,ugm-3,14.00000,R,ugm-3,46.00000,R,ugm-3,5.10000,R,ugm-3
04-01-2012,20:00,1.60000,R,ugm-3,10.30000,R,ugm-3,12.80000,R,ugm-3,48.00000,R,ugm-3,8.20000,R,ugm-3
04-01-2012,21:00,1.60000,R,ugm-3,6.50000,R,ugm-3,9.00000,R,ugm-3,50.00000,R,ugm-3,3.70000,R,ugm-3
04-01-2012,22:00,1.60000,R,ugm-3,4.60000,R,ugm-3,7.10000,R,ugm-3,54.00000,R,ugm-3,6.10000,R,ugm-3
04-01-2012,23:00,1.60000,R,ugm-3,2.30000,R,ugm-3,4.80000,R,ugm-3,56.00000,R,ugm-3,7.70000,R,ugm-3
04-01-2012,24:00,1.90000,R,ugm-3,1.90000,R,ugm-3,4.80000,R,ugm-3,58.00000,R,ugm-3,6.40000,R,ugm-3
05-01-2012,01:00,1.60000,R,ugm-3,2.50000,R,ugm-3,5.00000,R,ugm-3,56.00000,R,ugm-3,6.90000,R,ugm-3
05-01-2012,02:00,1.20000,R,ugm-3,3.10000,R,ugm-3,5.00000,R,ugm-3,54.00000,R,ugm-3,6.90000,R,ugm-3
05-01-2012,03:00,1.60000,R,ugm-3,4.20000,R,ugm-3,6.70000,R,ugm-3,56.00000,R,ugm-3,7.50000,R,ugm-3
05-01-2012,04:00,1.60000,R,ugm-3,4.20000,R,ugm-3,6.70000,R,ugm-3,58.00000,R,ugm-3,7.70000,R,ugm-3
05-01-2012,05:00,2.20000,R,ugm-3,7.50000,R,ugm-3,10.90000,R,ugm-3,54.00000,R,ugm-3,11.20000,R,ugm-3
05-01-2012,06:00,1.90000,R,ugm-3,8.40000,R,ugm-3,11.30000,R,ugm-3,54.00000,R,ugm-3,6.40000,R,ugm-3
05-01-2012,07:00,2.20000,R,ugm-3,5.90000,R,ugm-3,9.40000,R,ugm-3,56.00000,R,ugm-3,7.70000,R,ugm-3
05-01-2012,08:00,2.20000,R,ugm-3,2.30000,R,ugm-3,5.70000,R,ugm-3,62.00000,R,ugm-3,7.70000,R,ugm-3
05-01-2012,09:00,2.50000,R,ugm-3,4.60000,R,ugm-3,8.40000,R,ugm-3,54.00000,R,ugm-3,7.20000,R,ugm-3
05-01-2012,10:00,2.90000,R,ugm-3,8.40000,R,ugm-3,12.80000,R,ugm-3,44.00000,R,ugm-3,8.50000,R,ugm-3
05-01-2012,11:00,2.20000,R,ugm-3,7.50000,R,ugm-3,10.90000,R,ugm-3,48.00000,R,ugm-3,6.90000,R,ugm-3
05-01-2012,12:00,1.60000,R,ugm-3,6.50000,R,ugm-3,9.00000,R,ugm-3,48.00000,R,ugm-3,6.40000,R,ugm-3
05-01-2012,13:00,2.20000,R,ugm-3,5.20000,R,ugm-3,8.60000,R,ugm-3,52.00000,R,ugm-3,6.90000,R,ugm-3
05-01-2012,14:00,1.90000,R,ugm-3,3.60000,R,ugm-3,6.50000,R,ugm-3,60.00000,R,ugm-3,6.90000,R,ugm-3
05-01-2012,15:00,1.60000,R,ugm-3,5.50000,R,ugm-3,8.00000,R,ugm-3,60.00000,R,ugm-3,6.90000,R,ugm-3
05-01-2012,16:00,1.20000,R,ugm-3,5.20000,R,ugm-3,7.10000,R,ugm-3,60.00000,R,ugm-3,5.90000,R,ugm-3
05-01-2012,17:00,0.60000,R,ugm-3,8.40000,R,ugm-3,9.40000,R,ugm-3,54.00000,R,ugm-3,8.50000,R,ugm-3
05-01-2012,18:00,1.60000,R,ugm-3,10.10000,R,ugm-3,12.60000,R,ugm-3,50.00000,R,ugm-3,2.10000,R,ugm-3
05-01-2012,19:00,2.20000,R,ugm-3,9.80000,R,ugm-3,13.20000,R,ugm-3,48.00000,R,ugm-3,3.70000,R,ugm-3
05-01-2012,20:00,1.20000,R,ugm-3,11.10000,R,ugm-3,13.00000,R,ugm-3,44.00000,R,ugm-3,5.10000,R,ugm-3
05-01-2012,21:00,1.20000,R,ugm-3,10.30000,R,ugm-3,12.20000,R,ugm-3,46.00000,R,ugm-3,4.80000,R,ugm-3
05-01-2012,22:00,1.90000,R,ugm-3,8.80000,R,ugm-3,11.70000,R,ugm-3,48.00000,R,ugm-3,3.50000,R,ugm-3
05-01-2012,23:00,2.20000,R,ugm-3,7.50000,R,ugm-3,10.90000,R,ugm-3,50.00000,R,ugm-3,3.50000,R,ugm-3
05-01-2012,24:00,1.90000,R,ugm-3,8.80000,R,ugm-3,11.70000,R,ugm-3,42.00000,R,ugm-3,3.50000,R,ugm-3
06-01-2012,01:00,0.90000,R,ugm-3,6.10000,R,ugm-3,7.50000,R,ugm-3,46.00000,R,ugm-3,2.90000,R,ugm-3
06-01-2012,02:00,1.60000,R,ugm-3,8.00000,R,ugm-3,10.50000,R,ugm-3,42.00000,R,ugm-3,2.10000,R,ugm-3
06-01-2012,03:00,1.60000,R,ugm-3,9.40000,R,ugm-3,11.90000,R,ugm-3,36.00000,R,ugm-3,3.50000,R,ugm-3
06-01-2012,04:00,1.90000,R,ugm-3,8.40000,R,ugm-3,11.30000,R,ugm-3,40.00000,R,ugm-3,2.90000,R,ugm-3
06-01-2012,05:00,0.40000,R,ugm-3,8.00000,R,ugm-3,8.60000,R,ugm-3,44.00000,R,ugm-3,1.60000,R,ugm-3
06-01-2012,06:00,2.20000,R,ugm-3,13.40000,R,ugm-3,16.80000,R,ugm-3,28.00000,R,ugm-3,1.90000,R,ugm-3
06-01-2012,07:00,3.40000,R,ugm-3,14.00000,R,ugm-3,19.10000,R,ugm-3,26.00000,R,ugm-3,4.80000,R,ugm-3
06-01-2012,08:00,6.50000,R,ugm-3,17.80000,R,ugm-3,27.70000,R,ugm-3,20.00000,R,ugm-3,2.10000,R,ugm-3
06-01-2012,09:00,10.70000,R,ugm-3,23.70000,R,ugm-3,40.20000,R,ugm-3,10.00000,R,ugm-3,1.60000,R,ugm-3
06-01-2012,10:00,18.10000,R,ugm-3,31.60000,R,ugm-3,59.30000,R,ugm-3,8.00000,R,ugm-3,0.80000,R,ugm-3
06-01-2012,11:00,17.00000,R,ugm-3,33.10000,R,ugm-3,59.10000,R,ugm-3,14.00000,R,ugm-3,1.60000,R,ugm-3
06-01-2012,12:00,12.20000,R,ugm-3,29.50000,R,ugm-3,48.20000,R,ugm-3,26.00000,R,ugm-3,2.10000,R,ugm-3
06-01-2012,13:00,10.70000,R,ugm-3,26.00000,R,ugm-3,42.50000,R,ugm-3,26.00000,R,ugm-3,2.90000,R,ugm-3
06-01-2012,14:00,11.50000,R,ugm-3,28.50000,R,ugm-3,46.10000,R,ugm-3,24.00000,R,ugm-3,2.70000,R,ugm-3
06-01-2012,15:00,,,,,,,,,,,,,,,
06-01-2012,16:00,5.20000,R,ugm-3,28.70000,R,ugm-3,36.70000,R,ugm-3,16.00000,R,ugm-3,,,
06-01-2012,17:00,4.40000,R,ugm-3,32.30000,R,ugm-3,39.00000,R,ugm-3,16.00000,R,ugm-3,2.70000,R,ugm-3
06-01-2012,18:00,2.50000,R,ugm-3,30.80000,R,ugm-3,34.60000,R,ugm-3,20.00000,R,ugm-3,1.60000,R,ugm-3
06-01-2012,19:00,1.90000,R,ugm-3,29.80000,R,ugm-3,32.70000,R,ugm-3,20.00000,R,ugm-3,1.60000,R,ugm-3
06-01-2012,20:00,1.20000,R,ugm-3,31.40000,R,ugm-3,33.30000,R,ugm-3,20.00000,R,ugm-3,3.70000,R,ugm-3
06-01-2012,21:00,2.50000,R,ugm-3,34.60000,R,ugm-3,38.40000,R,ugm-3,16.00000,R,ugm-3,6.10000,R,ugm-3
06-01-2012,22:00,2.20000,R,ugm-3,25.20000,R,ugm-3,28.70000,R,ugm-3,24.00000,R,ugm-3,3.70000,R,ugm-3
06-01-2012,23:00,1.20000,R,ugm-3,17.80000,R,ugm-3,19.70000,R,ugm-3,26.00000,R,ugm-3,2.70000,R,ugm-3
06-01-2012,24:00,0.60000,R,ugm-3,16.40000,R,ugm-3,17.40000,R,ugm-3,28.00000,R,ugm-3,4.80000,R,ugm-3
07-01-2012,01:00,2.50000,R,ugm-3,13.00000,R,ugm-3,16.80000,R,ugm-3,32.00000,R,ugm-3,4.50000,R,ugm-3
07-01-2012,02:00,1.60000,R,ugm-3,10.50000,R,ugm-3,13.00000,R,ugm-3,34.00000,R,ugm-3,3.50000,R,ugm-3
07-01-2012,03:00,3.70000,R,ugm-3,14.00000,R,ugm-3,19.70000,R,ugm-3,32.00000,R,ugm-3,5.10000,R,ugm-3
07-01-2012,04:00,3.40000,R,ugm-3,12.00000,R,ugm-3,17.20000,R,ugm-3,30.00000,R,ugm-3,5.60000,R,ugm-3
07-01-2012,05:00,3.10000,R,ugm-3,7.80000,R,ugm-3,12.60000,R,ugm-3,36.00000,R,ugm-3,2.70000,R,ugm-3
07-01-2012,06:00,1.60000,R,ugm-3,4.20000,R,ugm-3,6.70000,R,ugm-3,58.00000,R,ugm-3,5.10000,R,ugm-3
07-01-2012,07:00,2.90000,R,ugm-3,4.60000,R,ugm-3,9.00000,R,ugm-3,60.00000,R,ugm-3,6.40000,R,ugm-3
07-01-2012,08:00,5.90000,R,ugm-3,13.60000,R,ugm-3,22.60000,R,ugm-3,46.00000,R,ugm-3,1.30000,R,ugm-3
07-01-2012,09:00,5.50000,R,ugm-3,17.80000,R,ugm-3,26.20000,R,ugm-3,34.00000,R,ugm-3,2.70000,R,ugm-3
07-01-2012,10:00,4.90000,R,ugm-3,10.30000,R,ugm-3,17.80000,R,ugm-3,44.00000,R,ugm-3,5.60000,R,ugm-3
07-01-2012,11:00,4.00000,R,ugm-3,8.40000,R,ugm-3,14.50000,R,ugm-3,46.00000,R,ugm-3,2.10000,R,ugm-3
07-01-2012,12:00,4.00000,R,ugm-3,7.10000,R,ugm-3,13.20000,R,ugm-3,46.00000,R,ugm-3,2.90000,R,ugm-3
07-01-2012,13:00,4.60000,R,ugm-3,9.00000,R,ugm-3,16.10000,R,ugm-3,44.00000,R,ugm-3,3.50000,R,ugm-3
07-01-2012,14:00,4.00000,R,ugm-3,8.40000,R,ugm-3,14.50000,R,ugm-3,44.00000,R,ugm-3,2.90000,R,ugm-3
07-01-2012,15:00,3.70000,R,ugm-3,7.10000,R,ugm-3,12.80000,R,ugm-3,44.00000,R,ugm-3,2.70000,R,ugm-3
07-01-2012,16:00,4.60000,R,ugm-3,9.90000,R,ugm-3,17.00000,R,ugm-3,40.00000,R,ugm-3,2.10000,R,ugm-3
07-01-2012,17:00,5.50000,R,ugm-3,8.40000,R,ugm-3,16.80000,R,ugm-3,42.00000,R,ugm-3,4.80000,R,ugm-3
07-01-2012,18:00,4.00000,R,ugm-3,7.50000,R,ugm-3,13.60000,R,ugm-3,46.00000,R,ugm-3,1.30000,R,ugm-3
07-01-2012,19:00,5.20000,R,ugm-3,13.20000,R,ugm-3,21.20000,R,ugm-3,40.00000,R,ugm-3,4.80000,R,ugm-3
07-01-2012,20:00,4.90000,R,ugm-3,12.80000,R,ugm-3,20.30000,R,ugm-3,38.00000,R,ugm-3,0.80000,R,ugm-3
07-01-2012,21:00,6.10000,R,ugm-3,15.50000,R,ugm-3,24.90000,R,ugm-3,38.00000,R,ugm-3,2.10000,R,ugm-3
07-01-2012,22:00,7.10000,R,ugm-3,18.70000,R,ugm-3,29.60000,R,ugm-3,28.00000,R,ugm-3,4.30000,R,ugm-3
07-01-2012,23:00,4.90000,R,ugm-3,15.90000,R,ugm-3,23.30000,R,ugm-3,28.00000,R,ugm-3,1.30000,R,ugm-3
07-01-2012,24:00,4.00000,R,ugm-3,16.30000,R,ugm-3,22.40000,R,ugm-3,32.00000,R,ugm-3,2.70000,R,ugm-3
08-01-2012,01:00,3.70000,R,ugm-3,17.20000,R,ugm-3,23.00000,R,ugm-3,34.00000,R,ugm-3,5.60000,R,ugm-3
08-01-2012,02:00,2.90000,R,ugm-3,12.40000,R,ugm-3,16.80000,R,ugm-3,38.00000,R,ugm-3,0.50000,R,ugm-3
08-01-2012,03:00,3.10000,R,ugm-3,14.30000,R,ugm-3,19.10000,R,ugm-3,42.00000,R,ugm-3,1.60000,R,ugm-3
08-01-2012,04:00,4.40000,R,ugm-3,18.20000,R,ugm-3,24.90000,R,ugm-3,32.00000,R,ugm-3,4.30000,R,ugm-3
08-01-2012,05:00,3.70000,R,ugm-3,10.70000,R,ugm-3,16.40000,R,ugm-3,40.00000,R,ugm-3,2.90000,R,ugm-3
08-01-2012,06:00,2.90000,R,ugm-3,11.10000,R,ugm-3,15.50000,R,ugm-3,42.00000,R,ugm-3,1.60000,R,ugm-3
08-01-2012,07:00,3.70000,R,ugm-3,12.60000,R,ugm-3,18.40000,R,ugm-3,38.00000,R,ugm-3,5.60000,R,ugm-3
08-01-2012,08:00,4.60000,R,ugm-3,11.70000,R,ugm-3,18.70000,R,ugm-3,38.00000,R,ugm-3,2.10000,R,ugm-3
08-01-2012,09:00,4.00000,R,ugm-3,13.00000,R,ugm-3,19.10000,R,ugm-3,36.00000,R,ugm-3,2.10000,R,ugm-3
08-01-2012,10:00,6.50000,R,ugm-3,13.60000,R,ugm-3,23.50000,R,ugm-3,32.00000,R,ugm-3,5.10000,R,ugm-3
08-01-2012,11:00,6.70000,R,ugm-3,13.00000,R,ugm-3,23.30000,R,ugm-3,32.00000,R,ugm-3,2.10000,R,ugm-3
08-01-2012,12:00,6.10000,R,ugm-3,12.20000,R,ugm-3,21.60000,R,ugm-3,34.00000,R,ugm-3,3.50000,R,ugm-3
08-01-2012,13:00,9.00000,R,ugm-3,17.60000,R,ugm-3,31.40000,R,ugm-3,30.00000,R,ugm-3,4.80000,R,ugm-3
08-01-2012,14:00,6.70000,R,ugm-3,16.30000,R,ugm-3,26.60000,R,ugm-3,34.00000,R,ugm-3,4.80000,R,ugm-3
08-01-2012,15:00,9.00000,R,ugm-3,21.40000,R,ugm-3,35.20000,R,ugm-3,28.00000,R,ugm-3,2.70000,R,ugm-3
08-01-2012,16:00,11.10000,R,ugm-3,23.30000,R,ugm-3,40.40000,R,ugm-3,20.00000,R,ugm-3,3.50000,R,ugm-3
08-01-2012,17:00,12.60000,R,ugm-3,24.70000,R,ugm-3,44.00000,R,ugm-3,22.00000,R,ugm-3,4.80000,R,ugm-3
08-01-2012,18:00,9.50000,R,ugm-3,24.90000,R,ugm-3,39.40000,R,ugm-3,20.00000,R,ugm-3,2.10000,R,ugm-3
08-01-2012,19:00,5.50000,R,ugm-3,24.50000,R,ugm-3,32.90000,R,ugm-3,20.00000,R,ugm-3,2.90000,R,ugm-3
08-01-2012,20:00,4.90000,R,ugm-3,20.70000,R,ugm-3,28.10000,R,ugm-3,22.00000,R,ugm-3,2.70000,R,ugm-3
08-01-2012,21:00,4.40000,R,ugm-3,22.60000,R,ugm-3,29.30000,R,ugm-3,18.00000,R,ugm-3,3.50000,R,ugm-3
08-01-2012,22:00,8.40000,R,ugm-3,21.00000,R,ugm-3,33.90000,R,ugm-3,16.00000,R,ugm-3,3.50000,R,ugm-3
08-01-2012,23:00,14.50000,R,ugm-3,22.80000,R,ugm-3,44.90000,R,ugm-3,12.00000,R,ugm-3,6.90000,R,ugm-3
08-01-2012,24:00,17.20000,R,ugm-3,20.80000,R,ugm-3,47.20000,R,ugm-3,10.00000,R,ugm-3,2.70000,R,ugm-3
09-01-2012,01:00,18.10000,R,ugm-3,16.60000,R,ugm-3,44.40000,R,ugm-3,8.00000,R,ugm-3,3.50000,R,ugm-3
09-01-2012,02:00,20.10000,R,ugm-3,16.60000,R,ugm-3,47.40000,R,ugm-3,6.00000,R,ugm-3,3.50000,R,ugm-3
09-01-2012,03:00,13.80000,R,ugm-3,21.00000,R,ugm-3,42.30000,R,ugm-3,10.00000,R,ugm-3,5.60000,R,ugm-3
09-01-2012,04:00,11.10000,R,ugm-3,18.20000,R,ugm-3,35.20000,R,ugm-3,16.00000,R,ugm-3,3.70000,R,ugm-3
09-01-2012,05:00,10.50000,R,ugm-3,17.60000,R,ugm-3,33.70000,R,ugm-3,20.00000,R,ugm-3,1.60000,R,ugm-3
09-01-2012,06:00,6.70000,R,ugm-3,19.10000,R,ugm-3,29.50000,R,ugm-3,22.00000,R,ugm-3,6.90000,R,ugm-3
09-01-2012,07:00,2.20000,R,ugm-3,19.70000,R,ugm-3,23.10000,R,ugm-3,20.00000,R,ugm-3,2.70000,R,ugm-3
09-01-2012,08:00,3.10000,R,ugm-3,23.30000,R,ugm-3,28.10000,R,ugm-3,18.00000,R,ugm-3,4.80000,R,ugm-3
09-01-2012,09:00,2.50000,R,ugm-3,25.60000,R,ugm-3,29.50000,R,ugm-3,18.00000,R,ugm-3,3.70000,R,ugm-3
09-01-2012,10:00,4.40000,R,ugm-3,29.50000,R,ugm-3,36.10000,R,ugm-3,14.00000,R,ugm-3,3.50000,R,ugm-3
09-01-2012,11:00,3.40000,R,ugm-3,25.80000,R,ugm-3,31.00000,R,ugm-3,20.00000,R,ugm-3,5.60000,R,ugm-3
09-01-2012,12:00,1.20000,R,ugm-3,19.30000,R,ugm-3,21.20000,R,ugm-3,26.00000,R,ugm-3,2.10000,R,ugm-3
09-01-2012,13:00,1.20000,R,ugm-3,19.70000,R,ugm-3,21.60000,R,ugm-3,28.00000,R,ugm-3,3.50000,R,ugm-3
09-01-2012,14:00,1.20000,R,ugm-3,18.70000,R,ugm-3,20.70000,R,ugm-3,26.00000,R,ugm-3,3.50000,R,ugm-3
09-01-2012,15:00,1.60000,R,ugm-3,17.40000,R,ugm-3,19.90000,R,ugm-3,36.00000,R,ugm-3,3.50000,R,ugm-3
09-01-2012,16:00,5.50000,R,ugm-3,22.00000,R,ugm-3,30.40000,R,ugm-3,28.00000,R,ugm-3,3.50000,R,ugm-3
09-01-2012,17:00,11.70000,R,ugm-3,25.60000,R,ugm-3,43.60000,R,ugm-3,18.00000,R,ugm-3,3.50000,R,ugm-3
09-01-2012,18:00,17.60000,R,ugm-3,25.10000,R,ugm-3,52.00000,R,ugm-3,16.00000,R,ugm-3,3.50000,R,ugm-3
09-01-2012,19:00,5.00000,R,ugm-3,22.00000,R,ugm-3,29.60000,R,ugm-3,22.00000,R,ugm-3,3.50000,R,ugm-3
09-01-2012,20:00,13.20000,R,ugm-3,21.40000,R,ugm-3,41.70000,R,ugm-3,20.00000,R,ugm-3,4.00000,R,ugm-3
09-01-2012,21:00,12.00000,R,ugm-3,17.20000,R,ugm-3,35.60000,R,ugm-3,20.00000,R,ugm-3,5.10000,R,ugm-3
09-01-2012,22:00,16.10000,R,ugm-3,19.50000,R,ugm-3,44.20000,R,ugm-3,22.00000,R,ugm-3,1.60000,R,ugm-3
09-01-2012,23:00,22.80000,R,ugm-3,19.90000,R,ugm-3,54.90000,R,ugm-3,10.00000,R,ugm-3,3.50000,R,ugm-3
09-01-2012,24:00,21.30000,R,ugm-3,19.90000,R,ugm-3,52.60000,R,ugm-3,8.00000,R,ugm-3,6.40000,R,ugm-3
10-01-2012,01:00,19.00000,R,ugm-3,20.50000,R,ugm-3,49.50000,R,ugm-3,10.00000,R,ugm-3,1.10000,R,ugm-3
10-01-2012,02:00,11.10000,R,ugm-3,29.30000,R,ugm-3,46.30000,R,ugm-3,12.00000,R,ugm-3,3.50000,R,ugm-3
10-01-2012,03:00,13.00000,R,ugm-3,28.90000,R,ugm-3,48.80000,R,ugm-3,8.00000,R,ugm-3,4.80000,R,ugm-3
10-01-2012,04:00,12.70000,R,ugm-3,27.90000,R,ugm-3,47.40000,R,ugm-3,8.00000,R,ugm-3,0.50000,R,ugm-3
10-01-2012,05:00,15.50000,R,ugm-3,26.60000,R,ugm-3,50.30000,R,ugm-3,10.00000,R,ugm-3,4.30000,R,ugm-3
10-01-2012,06:00,13.60000,R,ugm-3,21.00000,R,ugm-3,41.90000,R,ugm-3,14.00000,R,ugm-3,2.70000,R,ugm-3
10-01-2012,07:00,9.00000,R,ugm-3,20.10000,R,ugm-3,33.90000,R,ugm-3,16.00000,R,ugm-3,1.30000,R,ugm-3
10-01-2012,08:00,2.90000,R,ugm-3,20.10000,R,ugm-3,24.50000,R,ugm-3,18.00000,R,ugm-3,2.10000,R,ugm-3
10-01-2012,09:00,4.10000,R,ugm-3,24.70000,R,ugm-3,31.00000,R,ugm-3,20.00000,R,ugm-3,5.10000,R,ugm-3
10-01-2012,10:00,5.90000,R,ugm-3,26.20000,R,ugm-3,35.20000,R,ugm-3,18.00000,R,ugm-3,2.10000,R,ugm-3
10-01-2012,11:00,4.00000,R,ugm-3,19.70000,R,ugm-3,25.80000,R,ugm-3,32.00000,R,ugm-3,5.60000,R,ugm-3
10-01-2012,12:00,3.50000,R,ugm-3,19.70000,R,ugm-3,25.10000,R,ugm-3,34.00000,R,ugm-3,0.80000,R,ugm-3
10-01-2012,13:00,0.40000,R,ugm-3,16.80000,R,ugm-3,17.40000,R,ugm-3,36.00000,R,ugm-3,2.70000,R,ugm-3
10-01-2012,14:00,1.00000,R,ugm-3,16.80000,R,ugm-3,18.40000,R,ugm-3,40.00000,R,ugm-3,2.90000,R,ugm-3
10-01-2012,15:00,3.10000,R,ugm-3,19.10000,R,ugm-3,23.90000,R,ugm-3,32.00000,R,ugm-3,2.70000,R,ugm-3
10-01-2012,16:00,3.50000,R,ugm-3,21.60000,R,ugm-3,27.00000,R,ugm-3,26.00000,R,ugm-3,2.10000,R,ugm-3
10-01-2012,17:00,7.10000,R,ugm-3,25.40000,R,ugm-3,36.30000,R,ugm-3,20.00000,R,ugm-3,1.60000,R,ugm-3
10-01-2012,18:00,3.50000,R,ugm-3,29.10000,R,ugm-3,34.40000,R,ugm-3,20.00000,R,ugm-3,3.70000,R,ugm-3
10-01-2012,19:00,3.70000,R,ugm-3,30.40000,R,ugm-3,36.10000,R,ugm-3,14.00000,R,ugm-3,1.30000,R,ugm-3
10-01-2012,20:00,6.50000,R,ugm-3,30.00000,R,ugm-3,40.00000,R,ugm-3,12.00000,R,ugm-3,3.70000,R,ugm-3
10-01-2012,21:00,15.10000,R,ugm-3,24.70000,R,ugm-3,47.80000,R,ugm-3,8.00000,R,ugm-3,1.30000,R,ugm-3
10-01-2012,22:00,12.60000,R,ugm-3,23.30000,R,ugm-3,42.60000,R,ugm-3,10.00000,R,ugm-3,2.70000,R,ugm-3
10-01-2012,23:00,7.10000,R,ugm-3,21.60000,R,ugm-3,32.50000,R,ugm-3,14.00000,R,ugm-3,1.60000,R,ugm-3